ARG1386 MMMX-SVMI

Flight info

Callsign ARG1386
Flight time N/A
Altitude 39000
Route UKUNO3A UKUNO UT108 VER UA552 MTT UM787 LOKUR UL795 ISODO UP671 LOLAM UL339 PBL ALDAK1
Aircraft A343/H-SDE2E3FGHIJ4J5M1RWXY/LB1D1

Departure

Time 2026-05-06 04:14
Airport Mexico City Benito Juárez International Airport (MMMX)

Arrival

Time N/A
Airport Maiquetía Simón Bolívar International Airport (SVMI)
Time Latitude Longitude Altitude Speed Heading
2026-05-06 03:42 19.43549 -99.08047 7307 ft 0 kts 328°
2026-05-06 04:05 19.43540 -99.08042 7307 ft 4 kts 325°
2026-05-06 04:05 19.43520 -99.08024 7311 ft 4 kts 310°
2026-05-06 04:05 19.43505 -99.08000 7307 ft 4 kts 291°
2026-05-06 04:05 19.43501 -99.07965 7307 ft 4 kts 250°
2026-05-06 04:06 19.43504 -99.07956 7307 ft 0 kts 239°
2026-05-06 04:08 19.43479 -99.08001 7307 ft 15 kts 239°
2026-05-06 04:08 19.43412 -99.08120 7307 ft 20 kts 239°
2026-05-06 04:09 19.43344 -99.08242 7309 ft 19 kts 239°
2026-05-06 04:09 19.43280 -99.08357 7307 ft 18 kts 239°
2026-05-06 04:09 19.43221 -99.08464 7307 ft 17 kts 239°
2026-05-06 04:09 19.43162 -99.08566 7307 ft 16 kts 238°
2026-05-06 04:10 19.43143 -99.08598 7308 ft 0 kts 238°
2026-05-06 04:10 19.43126 -99.08627 7307 ft 11 kts 238°
2026-05-06 04:10 19.43069 -99.08728 7307 ft 18 kts 239°
2026-05-06 04:10 19.43008 -99.08836 7307 ft 16 kts 239°
2026-05-06 04:11 19.42952 -99.08937 7307 ft 15 kts 240°
2026-05-06 04:11 19.42918 -99.09000 7307 ft 7 kts 239°
2026-05-06 04:11 19.42884 -99.09013 7307 ft 5 kts 188°
2026-05-06 04:11 19.42840 -99.09004 7309 ft 7 kts 159°
2026-05-06 04:12 19.42813 -99.08969 7308 ft 6 kts 99°
2026-05-06 04:12 19.42831 -99.08924 7307 ft 10 kts 61°
2026-05-06 04:12 19.42863 -99.08862 7307 ft 9 kts 61°
2026-05-06 04:12 19.42894 -99.08804 7308 ft 9 kts 60°
2026-05-06 04:13 19.42926 -99.08751 7307 ft 8 kts 53°
2026-05-06 04:13 19.42969 -99.08678 7307 ft 25 kts 59°
2026-05-06 04:13 19.43149 -99.08358 7305 ft 76 kts 59°
2026-05-06 04:13 19.43502 -99.07732 7308 ft 118 kts 59°
2026-05-06 04:14 19.43982 -99.06877 7309 ft 152 kts 58°
2026-05-06 04:14 19.44539 -99.05840 7482 ft 166 kts 59°
2026-05-06 04:14 19.45055 -99.04833 8329 ft 145 kts 60°
2026-05-06 04:14 19.45544 -99.03902 8880 ft 148 kts 59°
2026-05-06 04:15 19.46044 -99.02946 9189 ft 150 kts 59°
2026-05-06 04:15 19.46589 -99.01978 9428 ft 157 kts 57°
2026-05-06 04:15 19.47205 -99.00974 9581 ft 170 kts 57°
2026-05-06 04:15 19.47844 -98.99859 9742 ft 184 kts 60°
2026-05-06 04:16 19.48489 -98.98634 10041 ft 195 kts 62°
2026-05-06 04:16 19.49164 -98.97357 10468 ft 200 kts 59°
2026-05-06 04:16 19.49909 -98.96131 10964 ft 202 kts 58°
2026-05-06 04:16 19.50708 -98.94796 11130 ft 225 kts 58°
2026-05-06 04:17 19.51565 -98.93316 11388 ft 245 kts 59°
2026-05-06 04:17 19.52480 -98.91709 11681 ft 264 kts 60°
2026-05-06 04:17 19.53340 -98.89908 11954 ft 283 kts 70°
2026-05-06 04:17 19.53933 -98.87905 12368 ft 294 kts 75°
2026-05-06 04:18 19.54480 -98.85798 12948 ft 299 kts 76°
2026-05-06 04:18 19.55043 -98.83620 13559 ft 304 kts 75°
2026-05-06 04:18 19.55601 -98.81475 14165 ft 307 kts 75°
2026-05-06 04:18 19.56174 -98.79281 14734 ft 310 kts 75°
2026-05-06 04:19 19.56754 -98.77070 15312 ft 313 kts 75°
2026-05-06 04:19 19.57327 -98.74809 15660 ft 324 kts 78°
2026-05-06 04:19 19.57548 -98.72383 15876 ft 338 kts 94°
2026-05-06 04:19 19.57191 -98.69871 16147 ft 351 kts 102°
2026-05-06 04:20 19.56668 -98.67288 16415 ft 365 kts 102°
2026-05-06 04:20 19.56116 -98.64611 16679 ft 378 kts 102°
2026-05-06 04:20 19.55553 -98.61846 17009 ft 389 kts 102°
2026-05-06 04:20 19.54982 -98.59017 17469 ft 395 kts 102°
2026-05-06 04:21 19.54788 -98.58053 17644 ft 396 kts 102°
2026-05-06 04:21 19.53127 -98.49775 18739 ft 416 kts 102°
2026-05-06 04:21 19.52629 -98.47291 19105 ft 419 kts 102°
2026-05-06 04:22 19.52021 -98.44260 19547 ft 423 kts 102°
2026-05-06 04:22 19.51406 -98.41195 20002 ft 426 kts 102°
2026-05-06 04:22 19.50788 -98.38120 20443 ft 429 kts 102°
2026-05-06 04:23 19.49532 -98.31880 21181 ft 438 kts 102°
2026-05-06 04:23 19.48895 -98.28715 21612 ft 440 kts 102°
2026-05-06 04:23 19.48253 -98.25530 22046 ft 443 kts 103°
2026-05-06 04:23 19.47607 -98.22325 22445 ft 446 kts 103°
2026-05-06 04:24 19.46956 -98.19100 22858 ft 449 kts 103°
2026-05-06 04:24 19.46301 -98.15861 23253 ft 451 kts 103°
2026-05-06 04:24 19.45641 -98.12599 23648 ft 454 kts 103°
2026-05-06 04:24 19.44977 -98.09318 23963 ft 457 kts 103°
2026-05-06 04:25 19.44306 -98.06009 24272 ft 460 kts 103°
2026-05-06 04:25 19.43647 -98.02727 24588 ft 463 kts 102°
2026-05-06 04:25 19.43151 -97.99351 24914 ft 466 kts 98°
2026-05-06 04:25 19.42770 -97.95930 25239 ft 469 kts 97°
2026-05-06 04:26 19.42440 -97.92489 25612 ft 470 kts 97°
2026-05-06 04:26 19.42129 -97.89042 25971 ft 472 kts 97°
2026-05-06 04:26 19.41818 -97.85571 26294 ft 474 kts 97°
2026-05-06 04:26 19.41498 -97.82081 26612 ft 477 kts 97°
2026-05-06 04:27 19.41169 -97.78579 26926 ft 479 kts 97°
2026-05-06 04:27 19.40832 -97.75053 27235 ft 482 kts 97°
2026-05-06 04:27 19.40487 -97.71509 27546 ft 484 kts 97°
2026-05-06 04:27 19.40140 -97.67952 27851 ft 487 kts 97°
2026-05-06 04:28 19.39789 -97.64374 28130 ft 490 kts 97°
2026-05-06 04:28 19.39436 -97.60777 28413 ft 492 kts 97°
2026-05-06 04:28 19.39080 -97.57163 28694 ft 494 kts 98°
2026-05-06 04:28 19.38722 -97.53531 28964 ft 497 kts 98°
2026-05-06 04:29 19.38362 -97.49880 29261 ft 498 kts 98°
2026-05-06 04:29 19.38001 -97.46228 29665 ft 498 kts 98°
2026-05-06 04:29 19.37641 -97.42585 30064 ft 497 kts 98°
2026-05-06 04:29 19.37281 -97.38950 30388 ft 497 kts 98°
2026-05-06 04:30 19.36924 -97.35362 30676 ft 497 kts 98°
2026-05-06 04:30 19.36561 -97.31718 30960 ft 497 kts 98°
2026-05-06 04:30 19.36198 -97.28082 31250 ft 497 kts 98°
2026-05-06 04:30 19.35834 -97.24444 31537 ft 496 kts 98°
2026-05-06 04:31 19.35470 -97.20812 31835 ft 496 kts 98°
2026-05-06 04:31 19.35105 -97.17183 32142 ft 495 kts 98°
2026-05-06 04:31 19.34503 -97.11205 32537 ft 496 kts 98°
2026-05-06 04:31 19.33599 -97.03926 32872 ft 499 kts 104°
2026-05-06 04:32 19.32095 -96.96757 33384 ft 497 kts 105°
2026-05-06 04:32 19.30494 -96.89660 33964 ft 496 kts 105°
2026-05-06 04:32 19.28874 -96.82574 34344 ft 495 kts 105°
2026-05-06 04:32 19.27261 -96.75496 34812 ft 494 kts 105°
2026-05-06 04:33 19.25654 -96.68430 35157 ft 494 kts 105°
2026-05-06 04:33 19.24043 -96.61350 35575 ft 494 kts 105°
2026-05-06 04:33 19.22432 -96.54284 35979 ft 494 kts 105°
2026-05-06 04:33 19.20817 -96.47212 36328 ft 494 kts 105°
2026-05-06 04:34 19.19202 -96.40157 36766 ft 492 kts 105°
2026-05-06 04:34 19.17590 -96.33121 37137 ft 492 kts 105°
2026-05-06 04:34 19.15972 -96.26081 37492 ft 492 kts 105°
2026-05-06 04:34 19.13987 -96.19188 37806 ft 489 kts 116°
2026-05-06 04:35 19.10592 -96.12997 38143 ft 486 kts 125°
2026-05-06 04:35 19.06826 -96.07068 38462 ft 485 kts 126°
2026-05-06 04:35 19.03060 -96.01273 38783 ft 483 kts 126°
2026-05-06 04:36 18.98428 -95.94105 38867 ft 486 kts 126°
2026-05-06 04:36 18.94634 -95.88202 38867 ft 485 kts 126°
2026-05-06 04:37 18.90823 -95.82268 38867 ft 485 kts 126°
2026-05-06 04:37 18.87029 -95.76377 38865 ft 485 kts 126°
2026-05-06 04:38 18.81462 -95.67728 38865 ft 492 kts 126°
2026-05-06 04:38 18.75522 -95.58514 38864 ft 491 kts 126°
2026-05-06 04:39 18.71676 -95.52558 38865 ft 491 kts 126°
2026-05-06 04:39 18.67829 -95.46607 38865 ft 492 kts 126°
2026-05-06 04:40 18.63970 -95.40642 38867 ft 493 kts 126°
2026-05-06 04:40 18.60104 -95.34673 38864 ft 493 kts 126°
2026-05-06 04:41 18.56235 -95.28704 38877 ft 492 kts 126°
2026-05-06 04:41 18.52370 -95.22754 38875 ft 491 kts 126°
2026-05-06 04:42 18.48508 -95.16804 38883 ft 491 kts 126°
2026-05-06 04:42 18.44647 -95.10859 38885 ft 491 kts 126°
2026-05-06 04:43 18.40785 -95.04923 38887 ft 491 kts 126°
2026-05-06 04:43 18.36944 -94.99024 38888 ft 491 kts 126°
2026-05-06 04:44 18.30645 -94.89364 38883 ft 492 kts 126°
2026-05-06 04:44 18.22950 -94.77580 38877 ft 492 kts 126°
2026-05-06 04:45 18.18048 -94.70085 38871 ft 492 kts 126°
2026-05-06 04:45 18.10644 -94.58008 38869 ft 493 kts 114°
2026-05-06 04:46 18.06839 -94.44135 38861 ft 495 kts 104°
2026-05-06 04:46 18.03538 -94.30078 38849 ft 495 kts 105°
2026-05-06 04:47 18.00166 -94.16062 38844 ft 495 kts 105°
2026-05-06 04:47 17.98084 -94.07449 38844 ft 496 kts 105°
2026-05-06 04:48 17.96375 -94.00387 38836 ft 496 kts 105°
2026-05-06 04:48 17.94682 -93.93403 38834 ft 496 kts 105°
2026-05-06 04:49 17.92979 -93.86387 38834 ft 496 kts 105°
2026-05-06 04:49 17.91273 -93.79369 38828 ft 496 kts 105°
2026-05-06 04:50 17.89561 -93.72342 38836 ft 497 kts 105°
2026-05-06 04:50 17.87845 -93.65309 38835 ft 497 kts 105°
2026-05-06 04:51 17.86125 -93.58274 38835 ft 497 kts 105°
2026-05-06 04:51 17.84405 -93.51245 38818 ft 497 kts 105°
2026-05-06 04:52 17.82679 -93.44207 38821 ft 497 kts 105°
2026-05-06 04:52 17.80952 -93.37177 38834 ft 497 kts 105°
2026-05-06 04:53 17.79234 -93.30194 38833 ft 497 kts 105°
2026-05-06 04:53 17.77503 -93.23169 38834 ft 498 kts 105°
2026-05-06 04:54 17.76049 -93.17277 38830 ft 498 kts 105°
2026-05-06 04:54 17.73430 -93.06688 38831 ft 497 kts 105°
2026-05-06 04:55 17.69971 -92.92736 38816 ft 497 kts 105°
2026-05-06 04:55 17.66482 -92.78711 38832 ft 497 kts 105°
2026-05-06 04:56 17.62980 -92.64684 38816 ft 497 kts 105°
2026-05-06 04:56 17.59479 -92.50700 38813 ft 496 kts 105°
2026-05-06 04:57 17.55969 -92.36727 38827 ft 496 kts 105°
2026-05-06 04:57 17.52445 -92.22743 38834 ft 496 kts 105°
2026-05-06 04:58 17.48911 -92.08760 38835 ft 497 kts 105°
2026-05-06 04:58 17.45865 -91.96745 38855 ft 496 kts 105°
2026-05-06 04:59 17.44090 -91.89758 38868 ft 496 kts 105°
2026-05-06 04:59 17.42316 -91.82788 38874 ft 495 kts 105°
2026-05-06 05:00 17.40553 -91.75874 38874 ft 495 kts 105°
2026-05-06 05:00 17.37208 -91.62776 38881 ft 494 kts 105°
2026-05-06 05:01 17.33653 -91.48903 38870 ft 493 kts 105°
2026-05-06 05:01 17.30090 -91.35038 38904 ft 493 kts 105°
2026-05-06 05:02 17.26522 -91.21196 38893 ft 492 kts 105°
2026-05-06 05:02 17.22966 -91.07357 38904 ft 494 kts 105°
2026-05-06 05:03 17.19411 -90.93477 38904 ft 494 kts 105°
2026-05-06 05:03 17.15844 -90.79618 38924 ft 494 kts 105°
2026-05-06 05:04 17.12268 -90.65768 38930 ft 493 kts 105°
2026-05-06 05:04 17.08688 -90.51942 38937 ft 492 kts 105°
2026-05-06 05:05 17.05101 -90.38128 38951 ft 492 kts 105°
2026-05-06 05:05 17.01495 -90.24285 38944 ft 494 kts 105°
2026-05-06 05:06 16.97904 -90.10538 38970 ft 494 kts 105°
2026-05-06 05:06 16.94275 -89.96690 38993 ft 494 kts 104°
2026-05-06 05:07 16.90644 -89.82833 38982 ft 495 kts 104°
2026-05-06 05:07 16.87294 -89.69678 38976 ft 495 kts 104°
2026-05-06 05:08 16.85519 -89.62743 38974 ft 494 kts 104°
2026-05-06 05:08 16.83736 -89.55806 38965 ft 494 kts 104°
2026-05-06 05:09 16.81951 -89.48874 38975 ft 495 kts 104°
2026-05-06 05:09 16.79485 -89.39315 38978 ft 494 kts 104°
2026-05-06 05:10 16.75903 -89.25463 38976 ft 495 kts 104°
2026-05-06 05:10 16.72307 -89.11598 38985 ft 495 kts 104°
2026-05-06 05:11 16.68697 -88.97721 38995 ft 496 kts 104°
2026-05-06 05:11 16.65073 -88.83832 38995 ft 496 kts 104°
2026-05-06 05:12 16.61448 -88.69976 38971 ft 494 kts 104°
2026-05-06 05:12 16.57822 -88.56160 38960 ft 494 kts 104°
2026-05-06 05:13 16.54183 -88.42335 38947 ft 495 kts 104°
2026-05-06 05:13 16.50522 -88.28463 38941 ft 496 kts 104°
2026-05-06 05:14 16.46854 -88.14605 38955 ft 496 kts 104°
2026-05-06 05:14 16.43171 -88.00727 38956 ft 499 kts 104°
2026-05-06 05:15 16.39487 -87.86890 38969 ft 498 kts 103°
2026-05-06 05:15 16.35774 -87.72983 38964 ft 498 kts 104°
2026-05-06 05:16 16.32045 -87.59053 38960 ft 500 kts 103°
2026-05-06 05:16 16.28292 -87.45076 38957 ft 501 kts 104°
2026-05-06 05:17 16.24538 -87.31134 38961 ft 501 kts 103°
2026-05-06 05:17 16.20771 -87.17184 38960 ft 500 kts 104°
2026-05-06 05:18 16.16994 -87.03233 38958 ft 500 kts 104°
2026-05-06 05:18 16.13207 -86.89286 38932 ft 501 kts 104°
2026-05-06 05:19 16.09410 -86.75335 38938 ft 501 kts 104°
2026-05-06 05:19 16.05634 -86.61508 38926 ft 501 kts 104°
2026-05-06 05:20 16.01819 -86.47570 38954 ft 501 kts 104°
2026-05-06 05:20 15.97995 -86.33641 38965 ft 501 kts 104°
2026-05-06 05:21 15.94167 -86.19736 38960 ft 500 kts 105°
2026-05-06 05:21 15.90327 -86.05824 38973 ft 501 kts 105°
2026-05-06 05:22 15.86477 -85.91912 38973 ft 501 kts 105°
2026-05-06 05:22 15.82614 -85.77991 38990 ft 501 kts 105°
2026-05-06 05:23 15.78745 -85.64084 38980 ft 501 kts 105°
2026-05-06 05:23 15.72952 -85.43335 39016 ft 501 kts 105°
2026-05-06 05:24 15.69054 -85.29417 39026 ft 503 kts 105°
2026-05-06 05:24 15.65132 -85.15454 39014 ft 503 kts 105°
2026-05-06 05:25 15.61210 -85.01521 39015 ft 503 kts 105°
2026-05-06 05:25 15.57285 -84.87619 39015 ft 503 kts 105°
2026-05-06 05:26 15.53326 -84.73632 39005 ft 506 kts 105°
2026-05-06 05:26 15.49358 -84.59652 39002 ft 506 kts 106°